TimeAST,TemperatureF,Dew PointF,Humidity,Sea Level PressureIn,VisibilityMPH,Wind Direction,Wind SpeedMPH,Gust SpeedMPH,PrecipitationIn,Events,Conditions,WindDirDegrees,DateUTC
12:00 AM,91.4,86.0,84,29.50,3.7,ENE,4.6,-,N/A,,Unknown,70,2013-08-16 21:00:00
12:30 AM,91.4,84.2,79,29.50,3.7,East,5.8,-,N/A,,Unknown,80,2013-08-16 21:30:00
1:00 AM,91.4,84.2,79,29.50,4.3,ESE,8.1,-,N/A,,Unknown,110,2013-08-16 22:00:00
1:30 AM,91.4,84.2,79,29.50,4.3,ESE,6.9,-,N/A,,Unknown,110,2013-08-16 22:30:00
2:00 AM,91.4,82.4,75,29.50,4.3,ESE,10.4,-,N/A,,Unknown,110,2013-08-16 23:00:00
2:30 AM,91.4,82.4,75,29.50,4.3,East,6.9,18.4,N/A,,Unknown,100,2013-08-16 23:30:00
3:00 AM,92,84,72,29.53,4,ESE,11.5,,,,Haze,110,2013-08-17 00:00:00
3:00 AM,91.4,84.2,79,29.50,4.3,ESE,11.5,-,N/A,,Partly Cloudy,110,2013-08-17 00:00:00
3:30 AM,91.4,84.2,79,29.50,4.3,SE,5.8,-,N/A,,Partly Cloudy,140,2013-08-17 00:30:00
4:00 AM,91.4,84.2,79,29.53,4.3,SE,4.6,-,N/A,,Unknown,130,2013-08-17 01:00:00
4:30 AM,91.4,84.2,79,29.53,4.3,SE,5.8,-,N/A,,Unknown,130,2013-08-17 01:30:00
5:00 AM,91.4,84.2,79,29.53,3.7,SE,3.5,-,N/A,,Unknown,140,2013-08-17 02:00:00
5:30 AM,89.6,84.2,84,29.53,3.7,Calm,Calm,-,N/A,,Unknown,0,2013-08-17 02:30:00
6:00 AM,91.4,84.2,79,29.53,3.7,SSE,2.3,-,N/A,,Unknown,150,2013-08-17 03:00:00
6:30 AM,91.4,84.2,79,29.53,4.3,Calm,Calm,-,N/A,,Unknown,0,2013-08-17 03:30:00
7:00 AM,93.2,84.2,75,29.53,4.3,Calm,Calm,-,N/A,,Unknown,0,2013-08-17 04:00:00
7:30 AM,95.0,82.4,67,29.53,4.3,ESE,3.5,-,N/A,,Unknown,110,2013-08-17 04:30:00
8:00 AM,96.8,80.6,60,29.53,4.3,SE,5.8,-,N/A,,Unknown,130,2013-08-17 05:00:00
8:30 AM,98.6,77.0,50,29.56,4.3,SE,8.1,-,N/A,,Unknown,130,2013-08-17 05:30:00
9:00 AM,99,81,48,29.56,4,ESE,6.9,,,,Widespread Dust,120,2013-08-17 06:00:00
9:00 AM,98.6,80.6,56,29.56,4.3,ESE,6.9,-,N/A,,Unknown,120,2013-08-17 06:00:00
9:30 AM,98.6,82.4,60,29.56,5.0,East,8.1,-,N/A,,Unknown,100,2013-08-17 06:30:00
10:00 AM,100.4,82.4,56,29.56,5.0,ESE,9.2,-,N/A,,Unknown,110,2013-08-17 07:00:00
11:00 AM,100.4,82.4,56,29.53,4.3,ESE,9.2,-,N/A,,Unknown,110,2013-08-17 08:00:00
12:00 PM,100.4,84.2,60,29.53,3.7,East,9.2,-,N/A,,Unknown,90,2013-08-17 09:00:00
1:00 PM,100.4,82.4,56,29.50,3.7,ESE,9.2,-,N/A,,Unknown,110,2013-08-17 10:00:00
1:30 PM,100.4,82.4,56,29.50,3.7,East,8.1,-,N/A,,Unknown,90,2013-08-17 10:30:00
2:00 PM,100.4,82.4,56,29.50,3.7,East,10.4,-,N/A,,Unknown,90,2013-08-17 11:00:00
2:30 PM,100.4,82.4,56,29.50,3.7,East,10.4,-,N/A,,Unknown,100,2013-08-17 11:30:00
3:00 PM,100,83,51,29.51,4,East,10.4,,,,Haze,90,2013-08-17 12:00:00
3:00 PM,100.4,84.2,60,29.50,3.7,East,10.4,-,N/A,,Unknown,90,2013-08-17 12:00:00
3:30 PM,98.6,84.2,63,29.50,3.7,East,10.4,-,N/A,,Unknown,100,2013-08-17 12:30:00
4:00 PM,98.6,82.4,60,29.50,3.7,ENE,10.4,-,N/A,,Unknown,70,2013-08-17 13:00:00
4:30 PM,98.6,84.2,63,29.47,3.7,East,10.4,-,N/A,,Unknown,80,2013-08-17 13:30:00
5:00 PM,96.8,84.2,67,29.47,3.7,East,10.4,-,N/A,,Unknown,90,2013-08-17 14:00:00
5:30 PM,95.0,86.0,75,29.47,3.7,East,10.4,-,N/A,,Unknown,80,2013-08-17 14:30:00
6:00 PM,95.0,86.0,75,29.50,3.7,NE,8.1,-,N/A,,Unknown,40,2013-08-17 15:00:00
6:30 PM,95.0,86.0,75,29.50,3.7,NE,9.2,-,N/A,,Unknown,40,2013-08-17 15:30:00
7:00 PM,95.0,86.0,75,29.50,3.7,NNE,8.1,-,N/A,,Unknown,20,2013-08-17 16:00:00
7:30 PM,93.2,84.2,75,29.53,3.7,NNE,8.1,-,N/A,,Unknown,30,2013-08-17 16:30:00
8:00 PM,93.2,86.0,79,29.53,3.7,NNE,6.9,-,N/A,,Unknown,20,2013-08-17 17:00:00
8:30 PM,93.2,84.2,75,29.53,4.3,NNE,8.1,-,N/A,,Unknown,20,2013-08-17 17:30:00
9:00 PM,93,85,72,29.56,4,NNE,8.1,,,,Haze,20,2013-08-17 18:00:00
9:00 PM,93.2,86.0,79,29.53,4.3,NNE,8.1,-,N/A,,Unknown,20,2013-08-17 18:00:00
9:30 PM,95.0,84.2,71,29.53,4.3,NNE,8.1,-,N/A,,Unknown,30,2013-08-17 18:30:00
10:00 PM,93.2,84.2,75,29.53,4.3,NE,4.6,-,N/A,,Unknown,40,2013-08-17 19:00:00
10:30 PM,93.2,86.0,79,29.53,4.3,NE,4.6,-,N/A,,Unknown,50,2013-08-17 19:30:00
11:00 PM,93.2,86.0,79,29.53,4.3,NE,4.6,-,N/A,,Unknown,50,2013-08-17 20:00:00